This is the latest recevied weather packets stored in our database for station/object WB5TZJ. If no packets are shown the sender has not sent any weather packets the latest 10 day(s).
| Time | Temp. | Humidity | Pressure | Rain* | Wind** | Luminosity | Snow |
|---|---|---|---|---|---|---|---|
| 1777627248 | 22.78° C | 48% | 1010.4 hPa | 0 mm | - | - | - |
| 1777626648 | 22.78° C | 51% | 1010.4 hPa | 0 mm | - | - | - |
| 1777626048 | 22.78° C | 51% | 1010.4 hPa | 0 mm | - | - | - |
| 1777625448 | 22.78° C | 48% | 1010.4 hPa | 0 mm | - | - | - |
| 1777624848 | 22.78° C | 48% | 1011.5 hPa | 0 mm | - | - | - |
| 1777624248 | 22.78° C | 50% | 1012.5 hPa | 0 mm | - | - | - |
| 1777623648 | 22.78° C | 48% | 1011.1 hPa | 0 mm | - | - | - |
| 1777623048 | 22.78° C | 52% | 1010.8 hPa | 0 mm | - | - | - |
| 1777622448 | 22.78° C | 52% | 1010.8 hPa | 0 mm | - | - | - |
| 1777621848 | 22.78° C | 48% | 1010.8 hPa | 0 mm | - | - | - |
| 1777621248 | 22.78° C | 46% | 1011.5 hPa | 0 mm | - | - | - |
| 1777620648 | 22.78° C | 49% | 1011.1 hPa | 0 mm | - | - | - |
| 1777620048 | 22.78° C | 50% | 1012.5 hPa | 0 mm | - | - | - |
| 1777619448 | 22.78° C | 47% | 1011.1 hPa | 0 mm | - | - | - |
| 1777618848 | 22.78° C | 47% | 1011.1 hPa | 0 mm | - | - | - |
| 1777618248 | 22.78° C | 46% | 1011.8 hPa | 0 mm | - | - | - |
| 1777617648 | 22.78° C | 44% | 1012.5 hPa | 0 mm | - | - | - |
| 1777617048 | 22.78° C | 47% | 1011.1 hPa | 0 mm | - | - | - |
| 1777616448 | 22.78° C | 48% | 1011.5 hPa | 0 mm | - | - | - |
| 1777615848 | 22.78° C | 50% | 1011.1 hPa | 0 mm | - | - | - |
| 1777615248 | 22.78° C | 50% | 1010.8 hPa | 0 mm | - | - | - |
| 1777614648 | 22.78° C | 47% | 1011.1 hPa | 0 mm | - | - | - |
| 1777614048 | 22.78° C | 45% | 1011.1 hPa | 0 mm | - | - | - |
| 1777613448 | 22.78° C | 49% | 1010.8 hPa | 0 mm | - | - | - |
| 1777612848 | 22.78° C | 50% | 1011.5 hPa | 0 mm | - | - | - |
* Rain latest hour (hover to see other rain measurements)
** Current wind speed in m/s (hover to see current wind gust speed)